RH
5 8 13 14 13 14 18 24 26 26 23 18 16 16 16 20 26 31 35 35 33 30 30 37 41 38 36 37 39 48 64 76 69 49 37 36 38 45 59 75 82 77 73 76 74 61 45 36 33 35 30 16 6 6 6 6 8 13 18 27 37 43 44 43 42 41 41 40 34 25 16 9 6 6
5 8 11 12 11 12 17 23 27 28 26 20 17 17 18 22 28 34 38 39 36 30 29 33 35 34 33 34 36 37 41 44 39 33 34 36 41 54 69 79 79 74 72 74 70 57 44 36 35 36 24 9 5 6 6 7 11 17 22 30 38 44 45 42 40 40 40 37 28 18 10 6 6 6
5 8 10 11 11 12 17 23 27 30 29 24 19 17 19 24 30 35 36 34 30 28 33 36 32 32 33 33 36 36 34 32 30 31 34 38 47 63 76 79 73 71 71 71 68 57 44 37 38 34 18 6 5 6 6 8 14 22 29 35 41 45 45 42 40 38 35 29 20 11 7 6 6 6
5 9 11 12 11 13 18 22 28 33 33 28 22 17 19 23 26 30 29 29 29 30 36 37 34 35 36 35 34 34 33 33 31 32 35 42 50 61 74 77 71 69 72 73 68 57 43 38 40 31 12 4 6 6 7 10 17 26 32 36 39 41 41 40 36 32 27 21 14 9 7 6 6 7
5 8 12 14 14 15 19 23 28 34 35 33 27 21 18 19 21 23 24 25 29 34 35 35 37 38 37 36 34 31 31 32 33 34 38 47 53 56 65 74 75 73 73 71 63 51 42 40 40 27 9 5 7 6 7 11 17 27 32 34 34 36 37 35 33 30 26 20 12 7 6 6 7 7
5 9 12 13 13 15 18 22 28 32 33 33 34 29 23 19 18 20 22 24 29 35 36 36 39 39 37 37 34 30 30 31 33 36 42 50 54 53 53 62 72 72 66 62 56 48 42 42 40 23 6 5 7 6 8 10 14 22 27 29 32 37 39 37 36 33 26 18 10 7 7 6 7 7
5 10 12 13 13 15 17 20 26 32 36 38 40 38 31 25 22 21 23 26 30 34 37 41 41 40 39 37 32 31 32 31 29 33 41 45 48 50 48 50 60 65 63 57 52 47 42 43 38 18 5 6 7 7 8 8 12 16 21 25 29 37 43 41 38 33 24 15 9 7 7 6 7 8
5 10 14 13 14 17 18 19 25 33 40 42 42 42 37 32 28 26 28 31 31 31 37 44 43 40 41 36 31 31 32 32 32 35 40 41 42 46 47 46 51 59 62 55 47 45 43 45 36 14 4 7 7 7 8 9 13 17 21 26 30 38 44 42 37 30 20 12 8 7 7 7 8 11
5 10 14 13 13 15 16 16 21 30 36 37 39 42 40 36 34 32 33 35 33 31 37 45 43 41 41 37 33 32 29 28 33 40 46 45 46 47 47 45 45 53 59 54 47 46 46 47 35 12 5 7 7 8 9 10 17 21 25 30 33 40 43 40 35 26 17 11 7 7 7 8 10 14
5 9 13 13 12 12 12 13 18 24 29 31 37 43 43 41 40 38 37 37 35 34 40 45 44 42 41 38 34 31 27 26 30 38 43 45 49 51 49 47 47 54 60 56 49 47 48 48 31 10 5 8 8 9 9 12 18 22 27 31 35 40 40 37 31 22 14 10 7 8 9 10 14 17
5 8 12 13 11 10 10 12 15 20 25 28 36 45 48 48 47 44 42 40 39 40 43 45 45 43 41 38 34 29 27 29 33 37 39 40 44 45 43 45 48 53 56 53 50 49 51 47 26 8 6 8 8 9 9 11 15 20 27 32 36 39 37 34 28 19 13 9 8 10 11 15 19 20
7 8 11 12 12 10 10 11 13 18 22 27 36 48 53 55 54 52 49 46 44 45 46 46 46 44 41 37 33 29 29 33 36 39 41 43 45 42 40 40 43 48 50 50 51 52 53 44 22 7 6 8 8 8 8 10 12 19 28 34 39 40 38 34 25 16 11 9 9 12 16 22 23 22
10 7 10 13 13 11 11 12 13 16 20 24 34 47 55 59 63 63 60 56 51 50 50 47 45 44 41 37 33 31 33 35 37 40 44 47 48 46 44 43 45 49 50 51 53 54 53 42 21 7 6 8 8 8 9 10 11 18 30 39 44 44 40 33 22 14 10 9 12 19 24 27 24 22
13 8 9 13 14 13 13 14 16 19 23 28 36 45 52 60 68 73 71 64 57 54 52 48 45 45 42 38 35 34 35 36 37 41 44 48 50 48 47 46 47 49 51 55 59 58 52 40 22 9 6 7 9 9 9 10 11 19 35 47 50 47 40 30 20 13 9 10 18 26 29 27 23 22
17 11 9 12 15 15 13 16 23 31 39 47 53 57 60 64 71 75 75 70 62 56 52 48 47 46 42 39 38 38 38 39 40 43 46 49 51 48 46 47 47 48 51 57 62 60 51 40 26 11 5 7 10 9 10 10 11 21 38 50 52 47 38 28 18 11 9 14 24 29 28 25 22 23
21 15 10 11 17 17 15 19 28 39 51 60 62 63 65 70 75 77 78 76 65 55 52 51 49 48 44 42 42 41 42 43 44 48 51 54 53 49 46 48 48 49 52 59 66 62 49 41 32 16 6 7 10 9 10 10 11 21 38 50 52 46 37 25 15 10 11 18 26 28 25 23 22 26
25 19 12 11 16 19 18 19 26 40 55 59 55 51 53 66 78 81 81 79 67 57 58 58 53 50 47 46 45 46 46 47 49 53 56 58 55 50 48 49 49 50 54 61 67 61 48 44 41 25 9 7 9 10 10 9 12 22 36 49 52 45 33 21 13 9 12 19 25 26 24 22 22 30
28 24 18 13 15 19 20 20 25 39 54 57 52 44 44 59 76 82 84 81 68 61 65 63 55 52 51 48 48 50 50 52 55 57 60 60 55 49 48 49 50 51 54 61 65 61 52 46 41 28 13 7 10 11 10 9 13 21 34 46 48 41 29 18 11 9 11 19 26 25 23 22 25 36
33 28 22 16 13 16 20 22 25 37 51 55 49 44 46 58 72 80 86 84 72 67 69 66 57 54 53 50 50 52 54 57 60 61 63 61 54 50 49 49 51 51 54 61 63 57 48 39 31 25 15 8 9 11 9 10 13 20 34 43 43 36 25 15 9 7 13 22 26 24 22 22 28 42
40 31 24 20 16 14 17 23 26 33 44 48 45 45 51 56 66 80 88 86 79 75 74 68 59 56 55 52 51 53 57 63 65 64 65 62 55 51 50 50 53 51 52 61 60 50 42 34 25 20 12 7 8 10 10 11 12 20 34 40 38 33 22 12 7 8 15 24 26 23 22 22 32 49
40 33 27 24 20 16 16 21 25 29 37 42 43 50 54 51 62 85 91 83 79 77 72 67 60 57 57 54 52 54 60 65 66 64 66 63 56 52 51 52 54 48 45 53 53 44 39 34 23 14 9 6 7 8 9 10 13 23 34 37 35 29 17 8 6 9 18 25 25 23 21 24 39 54
38 33 31 27 24 20 18 19 21 26 34 40 44 53 57 56 70 93 95 85 83 80 72 65 62 59 57 55 54 56 60 61 57 58 65 64 57 53 51 54 54 44 37 42 43 36 34 32 21 10 5 6 8 8 9 10 15 25 31 33 32 24 12 7 7 11 20 26 25 22 21 27 44 56
36 32 30 28 27 25 22 19 20 25 35 44 49 52 54 64 86 100 94 86 88 85 73 65 62 59 56 56 58 59 59 53 46 53 64 63 56 53 52 53 51 40 32 34 35 32 31 28 16 7 4 6 9 11 11 12 18 24 27 28 27 18 9 6 7 13 21 25 25 22 21 31 47 55
33 30 28 28 29 28 26 24 23 27 35 45 50 45 49 74 97 95 83 83 87 81 71 65 62 58 56 59 61 59 53 44 42 55 67 62 54 53 53 52 45 34 29 29 28 29 30 21 10 5 4 5 7 11 13 14 18 22 22 23 22 14 8 6 8 14 23 26 24 22 22 33 48 54
28 27 26 27 28 28 28 27 27 29 33 40 45 42 46 69 79 66 66 85 89 76 67 64 61 58 59 62 59 50 43 40 47 61 67 60 53 54 54 49 40 31 26 24 24 26 25 14 5 4 5 5 7 11 12 12 14 18 19 20 18 13 7 6 9 15 23 26 24 23 24 34 50 60
27 26 25 25 26 26 28 29 29 29 31 37 41 36 35 44 44 38 57 87 89 72 65 63 59 60 63 60 51 41 38 46 59 68 65 55 51 53 52 44 34 26 23 23 24 22 16 8 4 4 4 5 7 9 10 9 10 14 19 21 19 13 6 6 10 16 23 26 24 24 25 34 56 71
30 29 28 28 28 27 28 29 29 30 32 35 36 30 28 31 31 38 65 88 84 69 63 62 60 62 62 54 43 38 42 53 65 68 63 56 54 56 53 42 30 25 25 28 27 18 9 4 4 5 4 4 6 8 8 7 6 11 18 22 20 12 6 7 11 17 24 26 24 24 24 34 59 72
36 34 33 33 34 34 32 30 30 33 36 39 38 32 27 29 40 61 83 87 76 66 62 61 62 62 57 44 35 36 44 55 62 63 60 59 61 61 56 44 32 28 28 28 23 13 5 3 4 5 5 5 6 6 6 6 6 9 15 21 19 10 6 8 11 19 26 27 25 25 23 34 57 63
47 45 43 43 43 42 38 34 34 37 38 42 42 33 29 41 63 83 86 75 66 66 64 62 61 56 46 35 28 30 38 47 55 57 56 58 60 57 49 37 29 27 27 24 16 9 5 4 3 4 4 5 5 6 6 6 7 10 16 19 16 9 6 8 12 20 27 27 26 25 22 33 55 59
51 54 57 57 55 52 45 39 40 41 41 45 43 35 42 63 77 79 72 64 64 67 65 61 57 47 36 29 25 26 31 38 45 49 52 56 56 48 36 29 26 27 26 22 15 9 6 5 3 3 4 5 6 7 7 5 7 15 21 19 13 8 7 8 12 21 29 28 27 26 21 31 54 60
49 57 66 66 62 61 56 52 51 48 47 49 45 42 58 75 73 65 63 62 63 65 63 59 52 41 31 26 23 24 30 37 42 46 50 54 51 39 29 26 27 27 25 20 14 9 7 5 4 3 3 4 6 7 7 5 9 18 23 18 12 8 7 8 12 22 31 30 27 27 23 27 49 61
45 53 65 70 69 69 68 67 65 62 61 61 58 60 72 76 66 60 63 64 62 63 63 58 48 37 29 25 22 23 29 37 46 52 55 53 44 32 26 26 27 27 24 19 13 9 6 4 4 4 3 4 6 7 6 6 10 17 20 17 13 8 6 8 11 21 32 33 28 28 24 23 42 58
42 44 58 73 79 77 75 75 75 75 78 80 77 75 75 70 63 62 64 64 63 63 63 58 47 35 28 25 24 26 29 36 46 55 58 52 40 30 27 28 29 27 23 18 12 7 5 4 3 4 4 4 5 5 5 7 10 14 18 17 13 8 6 8 11 18 30 34 29 27 26 21 33 52
37 43 61 78 80 76 77 79 78 79 87 91 87 80 75 71 68 66 66 65 63 63 64 59 45 34 29 26 26 29 32 37 45 53 54 46 34 28 29 29 28 26 22 17 12 7 4 3 3 5 5 4 5 4 4 6 9 15 20 19 13 8 7 8 12 18 27 33 30 27 27 22 25 42
38 54 75 83 76 73 76 80 79 83 91 94 89 84 83 79 74 68 66 65 65 66 66 58 44 35 31 26 26 30 35 40 47 50 48 39 30 29 31 30 28 27 21 16 11 7 5 4 3 5 5 5 5 5 4 6 10 19 27 23 13 8 8 7 10 17 25 33 33 28 28 25 21 32
39 57 76 81 75 72 76 80 84 91 97 97 91 88 87 82 72 67 67 68 67 68 66 57 44 35 29 26 27 31 35 42 49 49 43 35 30 32 32 30 29 27 19 14 11 7 4 4 3 4 5 4 5 5 5 6 11 20 27 23 12 8 8 7 9 15 23 31 34 29 27 26 20 23
37 51 71 82 81 78 79 86 94 99 100 99 94 90 85 77 69 67 70 71 69 68 65 56 42 32 28 27 30 33 36 43 50 48 40 33 32 33 31 30 29 25 17 13 10 6 4 4 3 3 4 4 5 6 4 5 12 21 24 20 12 8 8 7 8 14 21 28 33 31 28 27 24 20
45 58 74 85 87 85 87 94 101 101 98 95 91 86 79 73 69 71 72 71 69 68 64 55 41 32 30 29 30 35 41 46 50 46 39 34 35 35 32 30 29 23 16 12 10 6 5 4 3 3 5 4 4 6 5 5 13 23 24 18 11 8 8 8 8 12 19 26 32 34 29 27 27 22
52 64 72 78 80 83 89 96 102 100 95 88 83 79 75 71 72 75 74 71 68 66 62 54 41 34 34 33 32 35 42 48 50 45 38 37 38 35 32 31 27 21 15 11 10 7 4 4 4 3 4 4 4 6 6 5 11 20 23 18 11 7 8 9 8 10 16 24 32 36 33 30 30 29
61 69 74 79 83 87 90 94 99 102 96 86 79 77 73 70 72 76 75 72 69 67 61 53 42 35 36 37 35 36 42 48 49 43 38 40 40 35 33 31 26 19 14 11 9 7 4 4 4 4 4 5 5 5 6 6 7 13 18 16 11 8 7 9 9 9 12 21 29 35 36 34 33 33
69 73 74 77 84 91 91 88 92 97 94 87 81 77 72 71 74 76 74 71 71 69 62 52 43 38 37 37 37 38 43 48 48 43 40 42 40 35 33 31 24 17 13 10 8 7 5 3 4 4 4 5 6 5 6 7 7 9 11 11 9 8 7 8 9 10 11 16 25 33 36 36 33 32
69 74 72 70 75 84 87 88 93 94 90 87 83 76 72 75 79 76 72 72 73 68 60 51 45 40 38 38 38 40 45 49 47 44 43 43 39 35 32 29 22 15 12 10 8 7 5 3 4 5 4 5 5 5 6 7 7 7 8 8 8 8 8 8 9 10 10 13 20 29 35 36 34 31
70 73 77 79 82 87 92 96 100 98 92 88 84 78 78 83 80 73 72 73 72 65 57 53 49 43 40 40 40 42 47 49 47 45 45 43 38 34 31 27 21 15 12 11 8 5 4 4 4 4 4 5 5 6 6 7 8 7 8 8 8 8 8 8 9 10 11 12 16 25 33 36 35 32
65 64 73 81 83 90 98 101 100 98 95 91 86 83 85 85 78 75 79 77 68 60 56 54 51 46 42 42 42 44 48 50 47 47 47 42 37 34 30 25 19 15 13 11 8 5 4 4 4 5 5 5 5 6 6 7 8 8 8 9 9 9 9 9 9 9 10 11 14 22 30 36 37 35
61 57 64 69 73 84 96 99 99 100 98 94 91 89 86 81 77 82 87 79 65 57 55 53 50 47 45 45 45 45 48 50 49 49 47 41 36 33 28 23 18 15 13 11 8 5 4 4 4 4 5 5 5 6 7 8 8 8 9 9 9 10 9 9 9 10 10 10 14 20 28 35 38 37
Wind_Speed
23 23 22 22 21 20 19 19 19 20 22 23 23 24 24 24 25 27 28 29 29 28 28 29 31 33 34 35 37 38 38 38 41 44 46 46 46 44 43 43 44 44 44 45 46 47 47 47 46 47 48 49 48 49 49 48 46 43 40 37 36 37 37 37 36 35 34 34 35 35 36 36 35 34
24 24 23 22 22 22 21 20 19 20 22 22 23 24 24 24 25 27 29 29 30 30 29 31 32 33 33 34 35 38 39 40 42 44 45 45 44 42 41 43 44 44 44 45 46 47 47 47 46 47 48 48 48 49 48 47 44 42 39 38 38 39 38 37 36 35 35 35 35 36 36 36 35 35
25 25 25 23 23 22 22 21 20 21 23 23 24 24 24 25 25 27 29 30 32 32 31 33 34 34 35 35 35 37 39 42 44 44 44 44 43 41 41 42 44 45 45 46 46 47 47 46 47 48 48 48 48 48 48 46 43 40 39 39 39 39 38 36 35 35 35 36 36 37 37 37 37 38
26 26 25 24 24 23 23 23 22 22 23 24 24 24 24 26 26 27 29 30 32 33 33 35 35 35 36 37 38 39 40 42 44 44 43 43 42 41 40 42 44 45 45 46 46 47 47 47 47 48 48 48 48 48 47 45 42 40 39 39 39 38 37 36 35 36 37 38 39 39 38 38 39 40
27 26 24 23 24 24 24 24 24 24 24 24 25 25 25 26 26 27 29 31 33 33 34 36 36 35 37 39 40 41 42 43 44 44 42 42 41 41 40 41 43 44 45 46 47 48 47 47 48 48 48 47 48 47 46 44 42 40 38 39 39 39 38 37 37 38 39 39 39 39 39 39 41 43
28 27 26 24 24 24 25 25 25 25 26 26 26 26 26 26 27 28 30 32 33 33 34 35 36 36 38 40 41 43 44 44 44 42 41 41 41 41 41 41 42 44 46 46 47 48 47 47 48 48 47 47 47 47 46 45 43 41 39 39 40 40 39 38 38 38 39 39 39 40 40 41 42 45
28 27 27 26 25 25 26 26 25 26 27 27 27 27 27 27 28 28 30 32 33 33 33 35 35 36 38 42 42 43 44 45 44 42 40 40 40 40 41 41 42 44 46 46 47 47 47 47 48 47 46 46 47 47 46 45 44 42 41 40 40 40 40 38 38 38 39 40 40 40 41 42 45 47
28 28 27 27 26 25 26 26 26 26 27 27 27 27 28 28 29 29 30 32 34 34 34 34 35 36 38 42 44 44 44 44 43 42 41 41 41 41 41 42 42 43 45 46 47 47 46 46 47 47 46 46 46 47 47 46 45 44 43 42 41 40 40 39 38 39 40 40 40 41 42 44 47 49
29 29 29 29 27 26 27 26 26 27 28 28 28 28 28 28 29 30 31 31 33 35 35 34 35 36 38 41 44 45 44 43 41 40 40 41 42 41 41 42 42 43 44 46 47 47 46 46 47 47 45 45 46 47 47 46 46 45 44 43 42 41 39 38 39 40 40 40 40 42 44 46 48 50
30 30 30 30 29 28 28 27 26 28 29 30 29 29 29 28 29 31 31 32 33 35 36 35 35 37 39 41 44 44 44 43 40 39 40 40 40 41 41 42 43 43 43 45 47 47 46 47 48 46 45 45 46 46 46 46 46 45 44 43 42 40 39 38 39 40 40 40 41 43 45 47 50 52
31 31 31 32 31 30 29 27 27 28 30 30 30 30 30 29 30 31 32 32 33 35 36 35 35 37 39 41 43 43 43 42 40 40 40 41 41 41 41 42 42 43 44 45 46 46 46 46 47 46 44 45 45 45 45 46 46 45 45 43 42 40 38 38 40 41 40 40 41 44 47 49 52 54
31 31 32 32 32 31 30 28 28 29 30 31 31 31 31 30 31 32 33 33 34 35 36 36 35 36 39 41 42 42 42 41 40 40 41 42 42 42 42 42 43 43 44 45 46 46 45 46 46 45 44 44 44 45 46 46 46 46 45 44 42 40 39 39 40 41 40 41 43 46 48 51 53 55
32 32 33 33 32 31 30 29 28 29 30 31 31 32 32 33 33 34 34 34 34 35 36 37 36 36 38 41 42 42 41 41 40 40 41 42 43 43 42 43 43 44 44 45 45 45 45 46 46 45 43 44 45 45 46 46 46 46 45 44 42 40 40 41 41 41 41 42 44 46 49 52 54 55
32 33 33 33 32 32 31 29 28 28 29 30 31 32 34 35 34 35 35 35 35 35 36 36 36 37 38 40 41 41 41 41 41 41 41 42 42 42 42 43 44 44 44 45 45 45 46 47 46 45 43 44 45 45 46 46 46 46 45 44 42 41 41 42 42 41 42 43 45 47 50 53 54 53
33 33 34 33 33 32 31 28 27 27 28 30 31 32 35 36 36 36 36 35 35 36 37 36 35 37 39 40 40 40 40 41 41 41 42 42 42 42 42 43 44 44 45 44 44 45 46 47 47 45 43 43 44 45 45 46 46 46 45 43 42 41 41 42 42 41 42 43 45 48 51 54 54 52
33 33 34 33 33 33 31 29 28 28 28 30 31 33 35 36 37 37 36 36 35 36 37 36 35 37 40 40 40 40 41 41 41 41 42 42 42 42 42 43 44 45 45 44 44 45 46 47 47 46 43 43 44 45 45 45 45 45 44 42 41 41 42 42 42 41 41 43 45 49 53 54 53 51
33 33 34 33 33 34 32 30 29 29 29 30 31 33 35 36 37 37 37 36 35 36 36 36 36 38 40 41 40 40 41 42 41 41 42 42 42 42 42 44 44 45 45 44 44 45 46 46 47 46 44 43 43 44 44 44 44 44 43 42 41 41 42 42 41 40 41 43 47 51 54 54 52 50
33 34 35 34 34 35 34 32 30 30 30 31 33 34 36 37 37 37 37 36 34 36 37 37 37 39 40 41 40 40 41 42 42 41 42 42 42 42 42 44 44 45 45 44 44 44 45 46 47 47 44 43 42 43 44 44 44 43 43 42 41 42 43 42 41 40 42 45 48 52 55 54 51 49
33 34 35 34 34 35 35 34 33 32 32 33 34 35 36 38 38 37 37 35 34 35 37 38 39 39 40 41 41 40 40 41 41 41 42 42 41 42 43 44 45 45 45 44 44 44 45 46 46 46 44 42 41 42 43 43 43 43 42 42 42 42 42 41 40 41 43 46 50 53 54 53 50 49
33 34 35 34 35 36 36 36 35 34 35 35 35 36 37 38 38 38 37 36 35 35 36 38 40 40 41 42 41 39 39 40 41 41 42 41 41 42 43 43 44 45 45 44 44 45 46 46 47 46 44 42 41 41 42 42 42 42 42 41 41 42 42 40 40 42 44 47 51 54 54 51 50 51
34 34 34 35 36 36 36 37 37 36 37 37 36 37 37 38 39 39 37 36 36 36 37 39 41 41 42 42 41 39 38 40 41 41 42 41 41 42 43 43 44 45 44 43 44 45 46 47 47 46 43 41 40 40 41 41 42 42 41 41 41 42 41 40 41 43 45 48 52 54 53 50 51 52
34 34 33 35 36 36 36 38 39 38 38 37 37 38 38 39 40 39 37 36 37 38 38 40 41 42 42 42 41 39 38 40 41 41 41 40 40 41 42 42 43 44 44 43 44 45 46 47 48 46 42 39 39 40 41 41 41 40 40 40 41 42 41 41 42 44 46 49 53 55 53 51 52 54
35 34 33 34 36 35 35 37 39 39 38 38 37 37 39 40 39 37 37 39 39 38 38 40 42 42 42 42 40 39 39 40 41 40 39 39 40 41 42 42 43 44 44 43 44 45 46 47 47 46 42 38 36 37 39 40 39 39 39 40 41 42 41 41 42 44 47 50 54 55 53 52 53 54
34 34 33 34 35 36 35 37 39 40 39 38 37 37 39 39 37 36 39 41 39 37 38 40 41 42 42 41 38 37 38 40 40 39 38 39 40 41 41 42 42 43 43 43 44 45 46 46 45 45 43 39 36 35 37 38 38 38 39 40 41 42 41 41 42 45 48 51 55 55 54 53 54 56
34 34 32 32 35 37 36 37 40 40 39 38 37 37 38 39 39 40 42 40 36 36 38 40 41 41 41 38 36 36 39 39 38 37 37 39 40 40 41 41 42 42 43 43 44 45 45 44 44 44 43 40 37 35 36 36 37 38 39 41 42 41 40 40 43 45 48 51 55 56 54 54 56 58
35 34 32 32 36 38 37 37 40 40 40 38 37 37 39 40 42 43 42 38 35 36 38 39 39 39 38 36 35 37 38 37 36 36 37 39 39 39 39 40 41 41 42 43 44 45 44 43 42 43 43 40 37 36 36 36 37 38 39 40 41 41 40 40 43 45 47 51 55 55 54 55 57 60
37 36 34 34 38 40 39 38 39 41 40 38 37 38 40 41 43 44 41 36 34 35 37 37 38 38 37 35 35 36 35 35 34 35 37 38 39 39 39 39 40 41 43 44 45 45 44 42 41 41 42 40 38 36 36 37 38 38 38 39 40 40 39 40 42 45 48 51 54 55 54 54 56 58
38 38 37 38 41 42 40 39 40 41 42 41 39 38 40 42 44 43 38 33 32 34 36 36 36 37 35 34 34 34 33 33 33 35 36 37 37 37 38 39 40 42 43 43 44 43 43 42 40 39 40 40 40 38 37 37 38 38 38 39 38 38 39 40 42 44 47 51 54 54 53 53 54 56
38 38 39 40 42 44 42 40 41 43 44 44 41 39 40 42 42 37 32 31 31 33 34 34 35 35 34 33 32 32 33 33 33 34 35 35 35 36 36 37 38 40 42 42 43 42 42 41 41 40 41 41 41 40 38 36 36 37 37 38 37 36 37 39 41 43 46 49 53 54 52 52 53 55
38 39 40 41 43 45 44 42 43 46 47 45 41 39 39 38 34 30 29 30 30 31 32 33 33 33 32 32 31 32 33 33 34 34 34 34 34 35 35 36 37 39 41 42 42 41 41 41 41 42 42 41 40 39 37 36 35 35 36 37 37 35 35 37 40 43 45 48 51 53 52 52 53 54
39 40 43 45 46 46 45 45 46 48 47 43 40 39 37 33 30 29 30 30 30 31 31 32 32 32 31 31 31 32 32 33 34 34 34 33 34 34 34 35 36 38 40 40 40 40 40 40 41 42 42 41 40 38 37 35 34 33 35 36 37 35 34 37 39 41 44 47 50 52 52 51 51 52
42 43 46 48 49 47 45 46 47 46 43 41 40 38 34 32 31 30 30 30 31 31 31 31 31 30 30 30 31 32 32 32 33 33 34 34 34 34 34 35 36 38 39 40 40 40 40 40 40 41 42 41 39 38 36 34 32 32 34 35 36 34 34 36 38 40 42 45 48 50 51 50 49 50
46 47 48 50 50 48 44 44 45 45 43 41 40 35 31 31 30 29 29 30 31 31 31 30 30 30 30 30 31 32 33 33 32 32 33 33 33 33 34 35 37 38 39 40 40 40 40 40 39 40 40 40 38 36 35 33 31 32 33 34 34 34 33 35 37 38 40 42 46 48 50 49 48 47
48 49 48 46 46 45 45 44 45 45 44 41 36 31 29 31 31 29 30 31 31 31 31 29 29 30 30 30 31 32 33 33 32 32 32 31 31 32 33 35 37 38 39 39 39 39 39 39 39 39 39 39 38 36 34 33 31 31 32 33 33 33 32 33 35 36 38 41 43 46 48 48 47 46
48 45 42 41 41 44 47 48 47 45 41 38 34 32 33 33 31 30 30 31 31 30 30 29 29 30 30 31 32 33 33 33 32 32 31 30 30 32 33 35 37 38 39 39 38 38 38 38 38 38 38 37 37 36 34 32 30 29 30 31 31 31 31 32 33 34 37 39 41 44 46 46 45 45
47 43 41 41 42 44 48 50 47 43 40 38 37 36 35 32 30 30 31 31 30 29 29 30 30 30 30 31 32 33 33 33 32 32 31 29 29 31 33 35 36 38 38 38 37 37 37 37 37 37 36 36 35 34 33 31 29 28 28 29 29 29 30 30 31 33 35 36 38 41 44 45 44 43
47 45 43 42 41 43 47 47 44 41 40 40 38 35 33 30 29 30 31 30 29 29 29 30 30 30 31 32 32 33 33 33 32 31 30 29 30 31 33 35 36 37 38 37 37 36 35 35 36 36 35 34 33 33 32 30 28 27 27 28 28 28 28 28 29 31 32 34 36 39 41 43 44 42
45 43 42 41 41 41 43 44 43 42 42 38 34 32 30 29 29 29 30 30 29 29 29 29 30 30 31 32 33 33 33 33 32 31 29 29 30 32 33 35 36 37 37 36 36 35 35 34 35 34 34 33 32 31 31 30 28 26 26 27 26 26 27 27 28 29 30 32 34 36 39 41 42 42
45 44 42 42 42 41 42 45 47 46 39 33 31 30 30 28 28 28 29 30 30 29 29 30 30 29 31 33 33 33 32 32 31 30 29 29 30 32 33 35 36 36 36 36 35 34 34 33 33 33 32 32 31 30 29 29 27 25 25 25 24 24 26 27 27 27 29 30 32 34 36 38 40 40
46 45 43 41 41 43 45 46 47 43 36 31 31 30 29 28 28 28 29 30 30 30 30 30 30 29 30 32 34 34 33 32 31 29 28 29 30 32 33 34 35 36 36 35 34 33 33 33 32 32 31 31 30 29 28 27 26 25 24 23 23 24 25 26 26 27 27 28 29 30 32 34 36 36
46 45 42 40 40 44 46 45 42 39 35 32 32 31 29 29 29 29 29 30 30 29 29 30 30 31 30 32 34 34 33 32 31 29 28 29 30 32 33 34 35 35 35 34 33 32 32 32 31 31 30 30 29 28 27 26 26 25 24 23 22 22 23 25 26 27 26 27 27 28 29 30 32 33
45 43 41 39 38 41 43 42 40 38 36 34 33 32 30 29 30 30 30 30 29 28 28 28 30 31 32 32 33 34 33 31 30 29 28 29 31 32 33 34 35 34 34 34 33 31 31 31 30 29 29 29 28 27 26 25 25 24 24 23 22 21 22 23 25 26 26 26 26 27 27 27 28 30
44 41 40 38 37 38 41 41 39 38 37 35 33 31 30 31 32 31 30 29 28 28 27 28 30 31 32 33 33 33 32 31 30 29 29 30 31 32 33 34 34 34 34 33 32 30 30 30 30 28 28 28 27 26 25 24 24 24 24 23 22 21 21 21 22 24 25 25 25 25 25 25 26 27
44 41 40 40 38 37 40 43 41 39 39 35 31 30 32 33 32 30 29 28 28 28 28 28 30 31 32 33 33 33 32 31 30 29 29 30 32 32 33 33 33 33 33 33 31 29 29 30 29 28 27 27 26 25 24 23 23 23 23 23 23 22 21 21 20 21 22 23 23 24 24 24 25 26
45 43 43 44 42 40 42 43 41 39 39 35 30 31 34 33 30 29 29 29 29 29 29 30 31 31 31 32 33 33 33 31 30 30 30 31 32 32 33 33 33 32 32 32 30 28 28 29 29 27 26 26 26 24 23 22 22 21 22 23 23 23 22 22 21 20 20 21 22 22 22 22 22 24
Wind_Direction
293 292 291 293 294 294 295 298 303 307 308 308 307 305 304 302 303 304 305 308 311 313 315 312 309 313 317 319 322 325 324 320 320 322 323 323 323 325 325 324 324 325 327 329 330 331 332 331 330 330 329 328 329 329 329 329 329 328 327 326 324 324 323 321 320 321 322 322 320 318 316 315 314 313
293 292 291 292 293 294 295 297 302 305 305 305 304 303 302 301 302 302 303 305 306 310 314 313 313 317 318 319 322 325 325 322 321 322 322 323 324 325 325 324 325 326 328 329 331 332 331 330 330 329 329 329 329 329 330 330 329 329 327 325 323 323 322 320 321 322 323 322 320 319 317 316 316 316
292 292 292 293 293 294 295 297 299 301 302 303 302 302 301 301 301 300 301 304 306 311 315 315 316 319 319 321 323 324 324 323 322 323 324 324 325 325 325 325 326 327 328 330 331 331 331 330 330 329 329 329 330 330 330 330 329 328 328 326 325 323 322 322 322 322 323 323 323 322 321 319 319 318
292 292 292 293 293 293 294 295 296 297 299 300 301 301 300 300 300 300 302 303 306 312 316 315 318 320 319 322 325 325 324 323 323 325 325 325 326 326 326 326 326 328 329 330 331 331 330 330 329 330 330 330 331 330 330 330 328 328 328 328 327 326 325 323 323 324 326 327 326 323 321 320 319 319
293 293 291 289 290 291 292 293 294 295 297 298 300 301 301 300 300 301 302 304 307 313 315 315 318 321 319 322 326 326 325 324 323 325 325 326 326 327 328 327 326 327 329 330 330 330 330 330 329 330 330 330 330 330 330 329 327 327 327 328 328 328 326 324 325 327 328 327 324 322 320 319 318 319
293 293 290 288 288 288 289 291 293 295 297 299 301 303 302 301 301 301 302 305 308 311 313 315 318 320 320 323 325 326 325 324 323 324 326 326 326 327 329 329 327 327 328 329 330 330 329 329 330 330 330 330 330 330 330 329 327 326 326 327 328 328 326 325 326 326 327 325 324 322 320 319 319 320
293 293 290 288 287 287 289 291 293 295 297 299 302 303 303 302 302 302 303 306 308 310 312 315 318 319 321 323 325 325 324 323 323 325 326 326 326 328 330 331 329 327 328 329 329 329 329 329 329 330 330 331 330 330 330 329 328 328 327 327 327 327 326 325 325 326 327 326 323 321 319 319 320 322
293 291 289 287 286 286 288 290 292 293 294 296 300 302 303 304 303 302 304 306 309 311 314 316 318 320 322 322 323 324 323 322 323 325 326 326 328 329 330 330 329 327 327 328 328 329 329 329 329 330 330 330 330 330 330 330 329 329 328 327 327 326 325 324 325 327 327 325 323 322 321 321 321 322
292 290 288 287 286 286 287 290 291 292 293 296 300 302 302 303 302 303 305 307 309 313 315 316 318 321 322 321 322 323 322 322 323 324 325 327 328 329 329 329 329 328 327 328 328 329 329 329 330 330 330 330 330 331 331 331 330 330 329 328 328 326 324 324 326 327 327 326 325 323 321 320 321 323
291 290 289 288 288 288 289 291 292 292 294 297 300 300 301 302 301 303 306 308 310 313 315 316 317 320 322 321 321 322 322 322 323 324 325 327 328 328 329 329 329 328 327 328 328 328 329 330 330 330 330 330 330 330 331 331 331 331 331 329 328 326 325 325 327 328 329 328 326 322 321 321 323 325
291 290 289 289 290 290 291 293 293 293 294 297 299 300 301 302 302 304 307 309 312 313 314 315 317 320 322 321 321 322 321 321 322 323 325 327 328 329 329 329 328 327 328 328 328 328 329 329 330 330 330 329 329 329 330 331 332 333 332 330 328 326 326 327 329 331 330 328 324 323 323 325 326 326
291 290 290 290 290 291 292 294 295 295 296 297 299 300 301 303 304 305 306 309 311 312 312 313 317 320 320 321 321 322 321 320 321 323 326 327 329 329 330 329 328 328 328 328 328 328 328 330 331 330 329 328 328 330 331 332 333 334 333 331 328 327 328 330 332 332 330 328 326 326 326 326 326 325
291 290 289 290 290 291 293 296 297 298 298 299 300 301 301 302 303 304 306 308 309 309 309 311 316 319 319 320 322 321 320 319 320 323 325 327 328 329 329 329 328 328 329 329 329 328 329 330 331 330 328 327 328 330 332 333 333 334 333 331 329 329 330 332 334 333 331 329 328 327 326 326 326 326
290 290 289 289 290 291 293 297 298 300 300 301 302 302 301 302 302 302 304 305 306 307 308 310 315 318 319 321 322 321 320 319 320 323 325 326 327 328 328 328 328 329 329 329 329 328 329 331 331 330 328 327 328 330 331 333 333 334 333 331 330 330 332 334 335 334 332 330 329 327 326 327 328 328
288 289 289 289 289 290 293 296 298 300 302 303 304 303 303 303 302 301 302 303 304 305 307 310 314 317 318 321 322 321 320 319 320 323 324 326 327 327 327 327 328 329 329 329 329 328 329 331 332 330 328 327 327 329 331 333 334 333 332 331 330 331 333 335 335 334 332 330 329 327 328 329 329 328
287 289 289 289 288 289 291 294 297 299 302 304 306 306 306 305 302 300 300 301 303 305 307 310 314 316 317 320 321 320 319 320 322 323 324 325 326 326 327 328 328 329 330 329 329 328 329 331 332 331 328 326 327 329 332 333 334 333 332 331 330 332 334 335 335 334 332 330 329 329 331 332 331 329
286 288 289 289 288 288 290 293 295 298 300 303 305 308 309 308 303 299 297 299 303 305 306 308 312 314 316 318 320 320 318 320 323 324 324 325 326 326 327 327 328 329 329 330 329 328 329 331 331 330 329 327 326 328 331 333 333 333 332 331 331 333 335 335 335 333 331 330 332 333 334 333 332 330
285 287 289 289 287 287 289 291 292 294 297 300 303 306 309 310 308 302 297 298 302 302 302 306 309 312 314 317 318 318 318 321 323 324 324 325 325 326 327 328 328 328 329 329 328 328 329 330 330 330 329 327 326 327 330 332 333 333 333 332 332 334 335 335 334 332 332 334 336 336 336 335 333 332
285 286 288 289 288 287 287 289 290 292 295 298 301 304 307 309 311 308 300 297 299 300 301 304 308 310 313 315 316 317 318 321 323 324 324 325 325 326 327 328 328 328 328 329 328 328 328 329 330 330 328 326 325 326 329 331 333 333 333 333 333 334 334 334 333 333 336 339 339 338 338 337 335 336
284 285 287 290 289 287 287 287 288 290 294 297 300 303 305 306 310 310 304 298 298 299 300 302 306 309 312 313 314 315 318 321 323 323 324 325 326 326 327 327 327 327 328 329 328 328 329 330 330 330 328 326 325 325 328 331 333 334 333 333 333 334 334 334 335 337 340 341 341 341 340 339 339 340
284 284 288 289 289 289 288 286 286 289 292 295 297 301 303 306 308 307 303 299 296 296 298 301 305 308 310 312 312 313 317 320 322 323 323 324 325 326 326 327 327 327 327 328 328 328 329 330 330 330 329 326 324 325 327 331 334 333 332 333 333 333 334 336 338 341 343 344 343 343 343 342 343 343
282 284 287 288 289 290 288 286 287 288 290 293 297 299 301 305 306 302 300 299 295 294 296 300 303 307 309 310 310 312 316 319 321 322 322 323 324 325 325 326 326 326 327 328 328 328 329 330 330 331 330 327 325 326 328 332 333 331 331 333 333 334 336 339 341 343 345 346 345 345 346 346 346 346
281 283 284 286 288 290 289 288 287 288 289 291 295 298 300 303 301 298 300 300 294 291 294 298 302 306 307 308 309 311 315 318 320 320 321 322 324 324 325 326 326 325 326 328 328 328 330 331 331 331 331 329 327 326 328 330 330 330 332 333 334 336 339 342 343 345 348 348 347 347 349 349 348 348
281 282 283 285 287 288 288 287 286 286 288 290 294 298 301 302 299 299 304 302 292 288 292 298 302 305 305 306 309 312 315 318 319 319 320 322 323 324 324 325 325 325 326 328 328 329 331 332 332 331 330 329 327 327 328 328 328 330 333 334 336 339 341 342 344 347 350 350 349 350 352 350 350 351
280 281 284 286 285 284 285 285 284 285 288 290 294 297 299 299 298 301 305 301 291 288 293 299 302 304 304 306 310 314 316 317 317 319 320 322 323 323 324 325 325 325 326 328 330 330 332 333 332 331 330 330 328 327 326 326 329 331 333 336 339 341 341 343 347 349 352 352 351 353 354 352 352 353
280 282 284 284 282 281 282 282 284 286 288 290 292 293 293 294 296 301 304 297 288 289 295 299 301 302 303 307 312 315 315 316 316 318 320 321 321 322 323 324 324 325 326 328 330 331 333 334 334 332 330 330 328 327 325 326 330 333 334 337 340 340 341 345 349 351 353 354 354 355 355 355 356 356
280 281 283 282 280 280 281 282 283 285 286 288 289 290 292 293 296 300 299 291 286 290 295 297 299 300 303 308 313 314 315 315 316 318 320 320 321 322 323 324 324 325 326 328 330 332 334 336 335 332 330 329 328 327 327 329 332 333 334 338 340 341 343 347 350 352 354 355 356 357 357 358 359 358
280 281 281 280 278 278 279 280 281 282 283 284 286 288 291 294 296 296 291 284 284 290 294 296 298 300 303 309 313 313 314 315 316 318 319 320 321 322 323 323 324 324 326 328 331 333 335 337 336 332 330 329 329 330 331 332 333 333 335 338 341 342 345 349 352 354 355 356 357 358 359 1 1 0
282 282 280 278 276 275 276 277 278 278 278 280 284 289 292 294 294 289 282 280 285 289 293 296 299 301 305 309 312 312 314 315 317 318 318 318 319 320 320 322 323 324 326 329 332 334 335 335 335 332 330 330 331 333 335 335 333 334 335 338 342 345 347 350 353 356 357 357 358 359 1 3 2 2
286 284 280 275 273 271 272 273 273 274 275 278 283 289 291 290 286 280 277 280 285 288 293 297 299 302 306 310 311 312 315 317 316 316 317 318 318 318 319 322 324 325 327 330 331 333 334 335 334 333 332 332 333 335 336 336 335 334 334 337 342 347 349 351 354 357 357 358 359 0 2 5 4 4
286 285 279 274 271 270 269 269 270 272 275 279 284 287 286 281 276 274 277 281 284 288 293 297 300 303 307 309 311 313 316 317 316 316 318 319 318 319 321 323 325 326 327 329 330 332 334 335 335 334 334 334 335 336 337 337 335 334 334 337 343 348 350 352 356 358 358 358 359 1 4 6 6 6
284 284 280 275 271 268 267 266 268 272 274 278 283 284 279 273 272 273 276 280 284 289 294 298 301 304 307 309 311 314 316 316 315 316 318 318 318 320 322 324 326 327 328 329 332 334 335 336 336 335 334 335 336 336 337 337 335 334 336 339 343 348 351 354 357 359 359 358 360 2 4 7 8 8
282 284 284 279 273 269 267 268 269 270 272 277 281 279 271 269 271 272 274 279 284 289 295 299 302 304 306 308 311 313 315 316 316 316 316 317 318 320 323 324 325 326 328 331 333 335 336 336 336 335 334 335 336 336 337 337 336 336 338 340 343 347 351 355 357 359 359 359 0 2 5 7 9 10
281 284 285 280 273 268 269 271 271 271 273 276 275 271 269 271 272 271 273 278 283 289 295 301 303 304 305 307 310 313 314 315 316 316 315 315 317 320 323 324 324 326 329 332 333 334 335 336 336 335 334 334 336 337 338 338 338 338 339 341 343 346 352 356 357 358 359 360 1 3 5 7 9 12
283 285 283 277 271 267 268 271 272 271 271 270 268 270 274 274 271 270 273 277 282 290 297 302 303 303 304 306 310 313 313 314 315 314 314 315 318 321 323 323 325 327 329 331 332 333 335 336 335 334 334 334 335 336 338 339 340 339 340 341 342 345 351 355 356 358 359 360 1 3 5 7 9 12
285 287 282 276 273 270 270 272 270 266 266 268 268 271 272 269 267 269 272 276 283 292 299 302 303 302 303 305 309 312 312 313 313 313 313 316 319 322 323 323 324 326 328 330 331 333 334 335 334 334 334 335 335 336 337 339 340 340 340 341 342 345 349 353 355 358 359 359 1 3 5 6 9 13
285 286 281 277 274 273 271 270 267 265 270 273 271 267 265 263 265 268 271 277 286 294 299 301 301 300 302 304 308 311 311 311 311 311 312 315 319 321 322 322 324 326 327 330 331 331 333 334 334 334 335 335 335 335 337 339 340 340 341 342 343 344 346 350 355 357 358 359 1 3 5 6 8 11
284 284 281 277 277 274 267 263 265 271 276 273 264 260 261 262 263 267 272 280 288 295 299 299 298 299 301 303 307 309 310 309 310 310 311 314 318 321 321 322 323 325 327 329 330 330 332 333 333 333 334 334 334 336 337 339 340 341 342 343 344 343 343 349 354 356 357 360 2 3 4 6 7 9
281 281 278 276 275 271 264 263 268 273 271 262 255 257 260 260 261 266 273 281 288 294 297 296 295 297 300 302 306 308 308 308 309 309 309 312 317 319 320 320 322 324 326 328 328 329 331 332 332 333 334 334 334 336 337 338 339 341 342 343 343 342 343 347 351 354 357 0 2 2 4 6 6 8
279 279 278 277 273 266 264 267 270 268 261 254 256 259 259 258 261 266 273 281 288 293 295 294 294 295 298 301 305 306 307 307 307 307 307 311 315 317 317 318 321 323 325 326 327 328 329 330 331 332 333 333 333 335 336 338 339 341 343 343 343 343 343 343 347 352 357 359 1 2 4 5 6 7
278 276 276 276 271 266 267 269 268 262 258 257 258 259 258 259 262 267 272 280 287 291 292 293 293 294 297 301 303 305 305 305 305 304 305 309 313 315 315 317 320 322 324 325 325 326 327 329 330 331 331 331 331 333 335 338 339 341 343 344 344 344 343 341 343 349 355 357 358 1 4 4 4 7
275 273 273 272 269 268 267 264 259 256 257 258 258 258 259 260 262 266 272 279 285 288 290 290 291 292 296 300 302 303 303 303 303 302 304 307 311 312 314 316 318 321 322 323 324 324 325 326 328 329 329 328 329 331 334 338 339 340 343 345 344 343 342 341 341 345 350 354 356 359 1 2 3 5
271 269 270 271 270 270 266 259 254 254 256 256 255 256 257 259 261 266 273 280 285 287 288 288 289 291 295 298 301 301 301 301 300 300 302 305 308 310 312 314 317 319 321 322 322 322 322 323 325 327 326 326 328 330 332 335 338 340 342 344 344 342 342 342 341 341 345 350 353 354 356 358 360 3
268 267 269 270 271 270 263 256 252 252 253 252 250 252 255 258 262 269 277 281 285 287 288 287 288 289 293 297 299 299 299 299 298 298 300 303 306 308 311 313 315 318 319 320 320 320 319 320 322 325 325 324 325 327 329 332 336 339 340 341 343 342 341 341 340 340 342 345 348 350 352 354 357 1
266 267 269 270 271 268 261 255 251 248 248 248 248 251 257 261 266 272 277 280 284 287 288 287 287 289 293 296 298 297 297 297 296 296 299 302 304 306 309 311 314 316 317 318 317 317 316 317 319 321 322 321 322 323 325 328 333 338 339 338 340 341 340 339 339 339 341 341 343 346 349 352 355 359